EHI
0 0 0 0 0 0 0 0 0 0 0 0 0 0 0 1 2 3 4 4 3 3 4 2 0 1 2 2 1 0 0 0 0 0 0 0 0 1 3 4 4 4 4 3
0 0 0 0 0 0 0 0 0 0 0 0 0 0 0 1 2 3 3 3 2 2 1 1 0 1 1 1 0 0 0 0 0 0 0 0 1 2 4 5 6 5 4 4
0 0 0 0 0 0 0 0 0 0 0 0 0 0 0 0 1 1 2 2 1 1 1 1 1 0 0 0 0 0 0 0 0 0 0 0 1 3 4 5 6 6 6 6
0 0 0 0 0 0 0 0 0 0 0 0 0 0 0 0 0 0 1 1 1 1 2 2 1 0 0 0 0 0 0 0 0 0 0 0 1 3 3 4 5 6 6 6
0 0 0 0 0 0 0 0 0 0 0 0 0 0 0 0 0 0 0 0 0 1 1 1 1 0 0 0 0 0 0 0 0 0 0 0 1 2 2 3 3 4 4 4
0 0 0 0 0 0 0 0 0 0 0 0 0 0 0 0 0 0 0 0 0 0 0 0 0 1 1 0 0 0 0 0 0 0 0 0 0 1 1 2 3 2 1 1
0 0 0 0 0 0 0 0 0 0 0 0 0 0 0 0 0 0 0 0 0 0 0 0 1 2 1 1 0 0 0 0 0 0 0 0 0 0 1 2 3 2 1 1
0 0 0 0 0 0 0 0 0 0 0 0 0 0 0 0 0 0 0 0 0 0 0 0 1 2 1 1 1 0 0 0 0 0 0 0 0 0 1 2 3 2 2 2
0 0 0 0 0 0 0 0 0 0 0 0 0 0 0 0 0 0 0 0 0 0 0 0 1 1 1 0 0 0 0 0 0 0 0 0 0 0 0 1 1 2 1 1
0 0 0 0 0 0 0 0 0 0 0 0 0 0 0 0 0 0 0 0 0 0 0 1 1 1 0 0 0 0 0 1 0 0 0 0 0 0 0 0 0 0 0 0
0 0 0 0 0 0 0 0 0 0 0 0 0 0 0 0 0 0 0 0 0 0 0 1 1 0 0 0 0 0 0 0 0 0 0 0 0 0 0 0 0 0 0 0
0 0 0 0 0 0 0 0 0 0 0 0 0 0 0 0 0 0 0 0 0 0 0 0 0 0 0 0 0 0 0 0 0 0 0 0 0 0 0 0 0 0 0 0
0 0 0 0 0 0 0 0 0 0 0 0 0 0 0 0 0 0 0 0 0 0 0 0 0 0 0 0 1 1 1 0 0 0 0 0 0 0 0 0 0 0 0 0
0 0 0 0 0 0 0 0 0 0 0 0 0 0 0 0 0 0 0 0 0 0 0 0 0 0 0 0 1 2 2 1 0 0 0 0 0 0 0 0 0 0 0 0
0 0 0 0 0 0 0 0 0 0 0 0 0 0 0 0 0 0 0 0 0 0 0 0 0 0 0 0 1 1 2 2 0 0 0 0 0 0 0 0 0 0 0 0
0 0 0 0 0 0 0 0 0 0 0 0 0 0 0 0 0 0 0 0 0 0 0 0 0 0 0 0 0 1 2 1 0 0 0 0 0 0 0 0 0 0 0 0
0 0 0 0 0 0 0 0 0 0 0 0 0 0 0 0 0 0 0 0 0 0 0 0 0 0 0 0 0 1 1 1 0 0 0 0 0 0 0 0 0 0 0 0
0 0 0 0 0 0 0 0 0 0 0 0 0 0 0 0 0 0 0 0 0 0 0 0 0 0 0 0 0 0 0 0 0 0 0 0 0 0 0 0 0 0 0 0
0 0 0 0 0 0 0 0 0 0 0 0 0 0 0 0 0 0 0 0 0 0 0 0 0 0 0 0 0 0 0 0 0 0 0 0 0 0 0 0 0 0 0 0
0 0 0 0 0 0 0 0 0 0 0 0 0 0 0 0 0 0 0 0 0 0 0 0 0 0 0 0 0 0 0 0 0 0 0 0 0 0 0 0 0 0 0 0
0 0 0 0 0 0 0 0 0 0 0 0 0 0 0 0 0 0 0 0 0 0 0 0 0 0 0 0 0 0 0 0 0 0 0 0 0 0 0 0 0 0 0 0
0 0 0 0 0 0 0 0 0 0 0 0 0 0 0 0 0 0 0 0 0 0 0 0 0 0 0 0 0 0 0 0 0 0 0 0 0 0 0 0 0 0 0 0
0 0 0 0 0 0 0 0 0 0 0 0 0 0 0 0 0 0 0 0 0 0 0 0 0 0 0 0 0 0 0 0 0 0 0 0 0 0 0 0 0 0 0 0
0 0 0 0 0 0 0 0 0 0 0 0 0 0 0 0 0 0 0 0 0 0 0 0 0 0 0 0 0 0 0 0 0 0 0 0 0 0 0 0 0 0 0 0
0 0 0 0 0 0 0 0 0 0 0 0 0 0 0 0 0 0 0 0 0 0 0 0 0 0 0 0 0 0 0 0 0 0 0 0 0 0 0 0 0 0 0 0
0 0 0 0 0 0 0 0 0 0 0 0 0 0 0 0 0 0 0 0 0 0 0 0 0 0 0 0 0 0 0 0 0 0 0 0 0 0 0 0 0 0 0 0
0 0 0 0 0 0 0 0 0 0 0 0 0 0 0 0 0 0 0 0 0 0 0 0 0 0 0 0 0 0 0 0 0 0 0 0 0 0 0 0 0 0 0 0
Wind_Speed
11 12 12 13 12 11 11 11 12 13 11 10 10 10 10 9 8 7 6 5 4 5 4 4 5 4 3 2 1 1 1 1 0 1 1 1 1 1 2 1 1 1 1 0
11 9 10 10 9 9 9 9 11 12 9 8 9 10 9 8 8 8 7 6 5 4 4 4 4 4 3 2 2 1 1 1 1 1 1 1 1 1 1 2 1 1 1 1
9 9 10 7 4 5 7 8 10 10 9 10 10 10 9 8 7 7 7 7 6 4 4 4 4 3 3 2 2 2 2 2 1 1 1 1 1 1 2 2 1 1 1 1
8 9 7 4 4 5 7 7 7 8 9 9 10 10 7 6 7 8 8 7 6 4 4 4 4 3 3 2 2 2 2 2 1 1 1 1 1 1 1 1 1 1 1 1
7 9 8 2 4 6 9 8 5 9 10 10 10 10 4 5 7 8 7 7 6 4 4 4 4 3 3 3 3 3 2 2 1 1 1 1 1 2 2 2 2 2 1 2
8 9 7 5 7 9 10 7 7 11 11 11 11 10 6 8 9 9 7 6 5 4 4 3 3 4 4 3 3 3 3 3 2 2 2 1 1 2 2 2 2 2 2 2
9 9 6 5 8 8 7 7 11 13 12 11 11 9 9 10 9 8 7 6 5 5 4 4 4 4 4 4 3 3 3 3 2 2 2 2 2 2 2 2 2 2 2 2
7 8 4 7 8 7 9 11 12 12 12 11 11 10 9 9 8 7 6 6 5 4 4 3 4 4 4 4 3 3 3 3 2 2 2 1 2 2 2 2 2 2 1 2
7 7 7 8 9 9 10 12 12 12 12 11 11 10 10 8 7 6 6 5 5 4 4 4 4 3 4 3 3 3 2 2 2 2 2 2 3 3 3 2 2 2 1 1
10 9 11 12 11 11 11 12 12 12 11 11 11 10 9 8 6 5 5 5 4 4 4 3 3 3 3 3 3 3 3 2 2 3 3 2 3 3 2 2 2 2 2 2
13 13 13 11 13 14 13 13 12 12 11 10 10 9 8 7 5 5 5 4 4 4 4 3 3 3 3 2 2 2 2 2 2 1 1 1 1 1 2 2 2 2 3 3
11 12 13 15 14 14 14 12 12 12 11 10 9 8 7 6 5 5 5 4 4 4 4 4 3 3 3 2 1 2 2 2 1 1 0 1 1 1 1 0 1 1 3 4
13 14 15 16 14 13 12 12 11 10 10 9 8 7 6 6 5 4 5 5 4 4 4 4 3 3 2 1 1 2 2 2 2 1 1 1 1 1 0 1 2 1 2 2
11 12 14 13 13 12 11 11 9 9 8 7 6 6 5 5 4 4 5 4 4 4 4 3 3 3 2 1 1 2 2 2 3 2 1 1 1 1 1 1 0 1 1 2
11 12 13 13 11 10 10 9 9 8 7 7 6 5 5 5 4 4 4 4 4 4 3 3 2 2 2 2 2 2 2 1 1 1 1 1 1 1 1 1 1 1 0 1
13 13 12 11 10 10 10 10 9 8 8 7 6 6 6 6 5 4 4 4 3 3 2 2 2 2 2 2 2 3 2 1 2 2 1 1 1 1 1 1 1 1 1 1
12 11 11 11 11 10 10 10 10 9 8 7 7 6 7 6 4 4 3 3 3 2 2 3 3 3 2 2 3 2 1 2 3 3 1 1 1 1 1 1 1 1 1 2
10 10 11 11 11 11 10 10 9 9 8 8 7 6 5 5 4 4 3 3 2 2 3 3 3 3 2 2 2 2 1 1 1 1 1 1 2 2 1 1 1 2 1 0
11 10 10 11 11 10 10 10 9 8 8 7 6 5 5 5 5 4 4 3 3 3 2 2 2 3 3 2 2 3 2 2 1 2 1 1 3 2 1 1 1 2 2 2
12 12 12 11 10 10 9 9 9 8 7 7 6 5 5 5 4 4 4 3 3 2 2 2 3 3 3 3 4 3 2 2 2 1 1 2 1 1 1 1 1 2 2 2
13 13 13 11 10 10 10 10 9 8 7 7 6 5 5 4 4 4 4 3 2 2 2 3 3 3 3 2 4 3 2 2 2 1 1 2 1 1 1 1 2 2 2 3
13 12 12 11 11 10 9 9 9 8 7 6 6 5 4 4 4 4 4 3 2 2 3 4 3 1 0 2 4 3 2 2 2 2 1 2 1 1 2 2 2 2 2 2
13 12 12 11 11 10 10 9 8 7 7 6 6 5 5 4 4 4 3 3 2 3 4 2 2 3 2 4 3 3 2 2 2 2 2 2 1 1 1 1 1 2 2 2
13 12 11 11 11 10 9 8 7 6 6 6 5 5 4 4 4 4 3 3 3 4 3 2 4 4 5 5 4 3 3 2 2 2 1 1 1 1 1 1 1 1 2 2
13 12 11 11 9 7 7 7 6 6 6 4 4 4 4 4 3 3 3 3 4 5 4 5 6 6 6 5 4 3 3 1 1 1 1 1 1 1 1 1 1 2 2 2
12 10 9 9 8 7 6 6 5 4 4 4 3 4 3 3 4 3 3 4 6 5 5 4 5 6 5 4 3 3 2 3 3 2 1 1 1 1 1 1 2 2 2 2
11 9 7 7 7 6 6 5 5 4 4 4 3 4 4 4 4 5 5 5 5 6 5 4 5 5 4 3 3 3 2 2 2 2 2 1 0 0 0 1 1 1 2 2
Wind_Direction
290 293 294 293 297 301 295 293 292 304 312 341 346 342 340 338 338 338 337 341 344 341 346 350 348 348 350 352 356 346 325 331 17 342 324 303 325 337 346 336 342 350 21 353
285 288 289 286 294 295 295 298 297 301 310 348 340 337 336 336 339 341 336 333 330 327 331 334 336 338 341 339 338 323 316 308 338 327 311 292 309 343 357 355 355 355 336 312
294 309 288 277 325 317 316 317 315 314 331 338 330 334 333 333 333 331 331 331 324 317 320 317 315 315 316 314 315 306 291 297 313 291 296 301 314 5 12 351 344 355 334 334
292 297 282 38 30 336 314 318 326 325 332 330 329 324 321 326 332 330 327 326 322 317 312 304 299 296 296 290 285 288 282 283 276 269 286 321 326 350 355 344 333 320 319 348
288 293 289 293 13 340 308 299 345 339 334 328 329 309 299 338 336 326 323 322 319 315 305 293 289 285 278 268 267 268 279 289 271 268 279 289 331 350 347 334 324 317 342 332
285 291 291 359 15 339 300 272 20 346 331 326 319 309 327 335 323 318 317 317 314 302 293 285 282 273 266 264 263 268 275 280 274 264 273 280 301 316 324 313 304 310 332 307
281 279 282 14 355 321 298 336 341 327 322 317 313 314 316 312 309 310 309 308 306 299 292 284 276 267 265 271 275 278 281 278 270 262 262 262 274 292 292 296 311 310 315 309
286 279 302 12 335 328 327 324 319 319 319 315 311 309 305 304 307 308 304 302 304 295 291 282 273 264 262 273 280 275 273 271 269 265 270 257 263 275 279 284 287 284 301 311
290 296 326 322 313 316 316 312 314 315 315 312 306 303 305 304 304 301 301 305 304 293 290 281 270 268 271 277 270 268 266 269 270 258 256 256 261 259 253 251 278 294 306 325
280 282 302 305 304 310 312 308 309 310 307 303 300 299 300 299 296 297 301 300 299 289 285 279 277 277 276 276 260 251 252 253 254 249 242 237 257 258 260 270 294 311 317 325
279 292 300 300 310 314 311 309 308 306 303 301 299 299 301 301 298 295 290 286 287 282 277 275 276 280 278 275 257 252 252 247 246 242 240 228 240 310 297 338 350 307 315 312
287 302 301 302 306 310 308 308 306 302 303 306 302 299 300 299 294 285 281 282 282 279 274 275 276 281 280 270 241 232 240 252 262 261 278 245 214 152 91 303 78 251 269 288
287 294 294 296 301 304 302 302 302 300 301 302 302 298 294 293 287 278 277 277 282 280 274 280 283 285 290 280 238 236 250 256 264 268 283 258 250 256 177 145 160 216 241 247
292 293 293 298 303 304 303 301 300 300 302 304 303 298 295 293 281 275 276 279 283 278 270 269 270 272 271 257 232 233 245 234 249 252 285 289 257 251 260 288 249 105 142 176
298 296 296 300 300 303 308 306 302 303 309 308 309 306 301 297 286 282 280 279 279 268 261 264 262 263 255 237 231 241 249 254 266 284 284 282 259 253 269 280 305 345 11 139
300 300 301 300 300 304 307 306 302 303 303 303 305 302 297 292 282 276 277 278 270 260 264 267 265 259 243 225 226 231 224 190 255 262 261 263 248 257 278 295 318 344 352 15
299 301 305 306 304 303 303 302 299 298 297 295 296 295 292 285 274 268 272 275 270 261 262 259 258 244 232 224 238 250 243 164 192 234 242 277 274 280 294 296 315 334 353 24
300 298 299 299 299 299 299 297 295 293 291 288 287 283 280 278 271 267 270 264 254 255 255 250 248 236 223 223 246 276 262 233 220 235 236 279 284 271 267 282 308 319 323 141
310 308 303 300 298 294 294 294 296 292 287 282 276 272 269 268 265 258 256 247 233 231 230 222 207 228 216 221 252 224 233 231 225 224 239 231 244 255 274 298 313 312 314 315
313 311 307 305 303 297 294 294 292 287 282 273 271 267 264 262 252 246 247 246 244 246 209 197 200 220 220 205 244 235 228 239 240 236 261 272 266 255 264 304 320 319 317 322
312 309 307 307 304 300 295 293 286 278 275 268 264 259 257 255 247 241 236 229 212 219 206 186 213 213 216 200 220 239 222 227 245 253 265 266 257 254 262 285 299 310 316 329
310 307 305 305 301 297 293 288 281 273 268 263 259 254 249 242 237 236 237 249 209 187 216 205 213 186 231 252 229 233 225 227 242 249 252 259 266 272 279 299 309 322 333 337
306 303 300 298 296 293 290 286 279 268 260 257 251 246 242 243 240 234 225 218 211 184 225 211 144 135 220 238 241 237 228 225 236 248 258 266 264 267 289 311 327 336 345 344
303 300 297 293 291 287 285 286 281 268 259 253 240 234 234 232 228 228 222 182 182 187 222 148 151 181 229 233 227 223 217 217 235 255 268 272 270 281 313 326 335 351 359 343
301 298 292 288 284 280 279 280 274 262 252 243 232 221 225 228 230 222 211 191 172 195 204 169 180 201 223 225 213 208 208 204 260 280 222 254 286 319 343 340 343 345 346 345
298 290 284 278 279 275 270 267 265 259 250 237 221 210 210 210 216 209 202 196 190 206 214 180 182 203 218 215 203 203 200 177 190 213 216 245 291 334 342 343 343 348 352 360
289 285 277 274 272 268 265 265 266 266 258 240 224 213 206 204 205 203 200 193 189 197 197 193 193 198 205 202 187 179 178 176 186 193 193 206 225 225 56 343 348 359 351 4